Participated 1 time
in 1968
Severino Andreoli, Italy
Tour de France 2026 starts from Edinburgh, Scotland in

Stats and Facts from
Tour de France.

2026   2025   2024   2023  2022  2021  2020  2019   2018  2017   2016   2015  2014  2013   2012   2011  2010   2009   2008   2007   2006   2005   2004   2003   2002   2001   2000   1999   1998   1997  1996   1995   1994   1993   1992  1991   1990   1989   1988   1987   1986   1985   1984   1983  1982  1981   1980   1979  1978  1977   1976  1975  1974  1973   1972   1971   1970  1969   1968   1967   1966   1965  1964  1963   1962   1961   1960   1959   1958   1957  1956   1955   1954   1953   1952  1951  1950  1949   1948  1947  1939   1938   1937   1936   1935   1934   1933  1932   1931   1930  1929   1928   1927   1926  1925  1924  1923   1922   1921   1920   1919  1914   1913   1912   1911   1910  1909   1908   1907   1906  1905  1904   1903 

Tourstats
Sitemap

After stage 21 - 2026:
 16451 starters.
  5513 different riders.
  689 teams.
  2419 stages.
  470 restdays.
  469752.50 km.
  5946 abandoned riders.

Click map for 1925 route.
Facts from Tour de France 1925 Additional info and images from 1925.
  |   Stages.  |   Stage winners.  |   Days in jerseys.  |   Teams.  |   All riders.  |   All riders by age.  |   All riders from.  |  

  |   Rookies.  |   Withdrawls.  |   Average speed.  |   GC.  |   Polka  |   Green  |   White  |   Summits. (In tour)  |   Miscellaneous.  |  

Stage 3 on June 25th. 1925
Pick a stage:  1  2  3  4  5  6  7  8  9  10  11  12  13  14  15  16  17  18  

After stage 3:    Adelin Benoit  
  CherbourgBrest | Dist: 405.00km. | Winner: Louis Mottiat

Podium

Average speed for all riders in stage:  22,662 km./hr.

1
 Louis Mottiat  Alcyon-Dunlop16h 22' 30"=24,733  km/h

2
 Adelin Benoit  Thomann-Dunlop16h 28' 08"+  00:05:38 =24,592  km/h

3
 Nicolas Frantz  Alcyon-Dunlop16h 29' 07"+  00:06:37 =24,567  km/h

4  Francis Pelissier  Automoto-Hutchinson16h 29' 07"+  00:06:37 =24,567  km/h

5  August Verdyck  Christophe-Hutchinson16h 29' 07"+  00:06:37 =24,567  km/h

6  Omer Huyse  Armor-Dunlop16h 29' 07"+  00:06:37 =24,567  km/h

7  Théo Beeckman  Thomann-Dunlop16h 29' 07"+  00:06:37 =24,567  km/h

8  Ardito Bresciani  Meteore-Wolber16h 29' 07"+  00:06:37 =24,567  km/h

9  Jean Alavoine  Jean Alavoine-Dunlop-Wolber16h 29' 07"+  00:06:37 =24,567  km/h

10  Bartolomeo Aimo  Alcyon-Dunlop16h 29' 07"+  00:06:37 =24,567  km/h

11  Jules Buysse  Automoto-Hutchinson16h 29' 07"+  00:06:37 =24,567  km/h

12  Ottavio Bottecchia  Automoto-Hutchinson16h 34' 15"+  00:11:45 =24,441  km/h

13  Hector Martin  J. B. Louvet-Pouchois16h 34' 15"+  00:11:45 =24,441  km/h

14  Federico Gay  Meteore-Wolber16h 34' 15"+  00:11:45 =24,441  km/h

15  Albert Dejonghe  J. B. Louvet-Pouchois16h 35' 25"+  00:12:55 =24,412  km/h

16  Robert Jacquinot  Jean Louvet-Hutchinson16h 35' 25"+  00:12:55 =24,412  km/h

17  Romain Bellenger  Alcyon-Dunlop16h 35' 25"+  00:12:55 =24,412  km/h

18  Raymond Englebert  Labor-Dunlop16h 35' 25"+  00:12:55 =24,412  km/h

19  Léon Despontin  Touristes Routiers16h 35' 25"+  00:12:55 =24,412  km/h

20  Arthur Targez  Touristes Routiers16h 35' 25"+  00:12:55 =24,412  km/h

21  Eugene Dhers  Touristes Routiers16h 38' 30"+  00:16:00 =24,337  km/h

22  Lucien Buysse  Automoto-Hutchinson16h 39' 33"+  00:17:03 =24,311  km/h

23  Giovanni Canova  Touristes Routiers16h 39' 33"+  00:17:03 =24,311  km/h

24  Eugène Christophe  J. B. Louvet-Pouchois16h 40' 45"+  00:18:15 =24,282  km/h

25  Giuseppe Enrici  Armor-Dunlop16h 43' 35"+  00:21:05 =24,213  km/h

26  Félix Sellier  Alcyon-Dunlop16h 44' 36"+  00:22:06 =24,189  km/h

27  Hector Heusghem  Jean Louvet-Hutchinson16h 44' 36"+  00:22:06 =24,189  km/h

28  Albert Jordens  Touristes Routiers16h 44' 36"+  00:22:06 =24,189  km/h

29  Marcel Colleu  J. B. Louvet-Pouchois16h 44' 36"+  00:22:06 =24,189  km/h

30  Alfonso Piccin  Christophe-Hutchinson16h 46' 55"+  00:24:25 =24,133  km/h

31  Michele Gordini  Touristes Routiers16h 46' 55"+  00:24:25 =24,133  km/h

32  Guido Messeri  Touristes Routiers16h 48' 50"+  00:26:20 =24,087  km/h

33  Umberto Berni  Touristes Routiers16h 52' 56"+  00:30:26 =23,990  km/h

34  Angelo Gremo  Meteore-Wolber16h 54' 37"+  00:32:07 =23,950  km/h

35  Philippe Thys  Automoto-Hutchinson16h 56' 50"+  00:34:20 =23,898  km/h

36  Alfredo Cominetti  Touristes Routiers16h 56' 50"+  00:34:20 =23,898  km/h

37  Maurice Arnoult  Touristes Routiers16h 58' 20"+  00:35:50 =23,863  km/h

38  Daniel Masson  Touristes Routiers17h 00' 30"+  00:38:00 =23,812  km/h

39  Emile Hardy  Christophe-Hutchinson17h 00' 30"+  00:38:00 =23,812  km/h

40  Giovanni Rossignoli  Touristes Routiers17h 00' 30"+  00:38:00 =23,812  km/h

41  Henri Touzard  Touristes Routiers17h 00' 30"+  00:38:00 =23,812  km/h

42  Angelo Erba  Touristes Routiers17h 05' 35"+  00:43:05 =23,694  km/h

43  Maxime Mourguiat  Touristes Routiers17h 08' 40"+  00:46:10 =23,623  km/h

44  Romolo Lazzaretti  Meteore-Wolber17h 10' 52"+  00:48:22 =23,572  km/h

45  Felice Di Gaetano  Touristes Routiers17h 10' 52"+  00:48:22 =23,572  km/h

46  Charles Loew  Touristes Routiers17h 16' 10"+  00:53:40 =23,452  km/h

47  Charles Martinet  Touristes Routiers17h 16' 10"+  00:53:40 =23,452  km/h

48  Vincenzo Bianco  Touristes Routiers17h 16' 10"+  00:53:40 =23,452  km/h

49  Charles Roux  Touristes Routiers17h 17' 05"+  00:54:35 =23,431  km/h

50  Theodore Wynsdau  J. B. Louvet-Pouchois17h 21' 31"+  00:59:01 =23,331  km/h

51  August Mortelmans  J. B. Louvet-Pouchois17h 21' 31"+  00:59:01 =23,331  km/h

52  Raymond De Corte  J. B. Louvet-Pouchois17h 24' 10"+  01:01:40 =23,272  km/h

53  Henri Rubert  Touristes Routiers17h 24' 10"+  01:01:40 =23,272  km/h

54  Joseph Marchand  Touristes Routiers17h 25' 40"+  01:03:10 =23,239  km/h

55  Alfons Standaert  Labor-Dunlop17h 30' 20"+  01:07:50 =23,136  km/h

56  Mosé Arosio  Touristes Routiers17h 30' 25"+  01:07:55 =23,134  km/h

57  Charles Krier  Touristes Routiers17h 35' 10"+  01:12:40 =23,030  km/h

58  Henri Catelan  Touristes Routiers17h 42' 30"+  01:20:00 =22,871  km/h

59  Charles Parel  Touristes Routiers17h 52' 01"+  01:29:31 =22,668  km/h

60  Marcel Clausse  Touristes Routiers17h 52' 01"+  01:29:31 =22,668  km/h

61  Antoine Rière  Touristes Routiers17h 56' 05"+  01:33:35 =22,582  km/h

62  Leopold Gelot  Touristes Routiers17h 58' 40"+  01:36:10 =22,528  km/h

63  Henri Pelissier  Automoto-Hutchinson18h 07' 45"+  01:45:15 =22,340  km/h

64  Honoré Barthélémy  Touristes Routiers18h 07' 45"+  01:45:15 =22,340  km/h

65  Alfredo Francini  Touristes Routiers18h 07' 45"+  01:45:15 =22,340  km/h

66  Luigi Vertemati  Touristes Routiers18h 07' 45"+  01:45:15 =22,340  km/h

67  Jules Deloffre  Touristes Routiers18h 24' 30"+  02:02:00 =22,001  km/h

68  Edouard Petre  Touristes Routiers18h 25' 35"+  02:03:05 =21,979  km/h

69  Arthur Hendryckx  Touristes Routiers18h 30' 35"+  02:08:05 =21,880  km/h

70  Simeon Vergnol  Touristes Routiers18h 38' 40"+  02:16:10 =21,722  km/h

71  Giuseppe Ruffoni  Touristes Routiers18h 51' 50"+  02:29:20 =21,470  km/h

72  Adrien Toussaint  Touristes Routiers18h 51' 50"+  02:29:20 =21,470  km/h

73  Edouard Teisseire  Touristes Routiers18h 54' 40"+  02:32:10 =21,416  km/h

74  Charles Cento  Touristes Routiers19h 00' 40"+  02:38:10 =21,303  km/h

75  Luigi-Natale Lucotti  Meteore-Wolber19h 07' 35"+  02:45:05 =21,175  km/h

76  Roger Lacolle  Meteore-Wolber19h 07' 35"+  02:45:05 =21,175  km/h

77  Francois Chevalier  Touristes Routiers19h 10' 06"+  02:47:36 =21,129  km/h

78  Francois Lepenant  Touristes Routiers19h 10' 06"+  02:47:36 =21,129  km/h

79  Henri Miege  Touristes Routiers19h 10' 06"+  02:47:36 =21,129  km/h

80  Fernand Besnier  Touristes Routiers19h 23' 10"+  03:00:40 =20,891  km/h

81  Pietro Barbati  Touristes Routiers19h 29' 05"+  03:06:35 =20,786  km/h

82  Emile Broussard  Touristes Routiers19h 29' 05"+  03:06:35 =20,786  km/h

83  Andre Drobecq  Touristes Routiers19h 53' 35"+  03:31:05 =20,359  km/h

84  Lucien Prudhomme  Touristes Routiers20h 04' 15"+  03:41:45 =20,179  km/h

85  Giuseppe Borghi  Touristes Routiers20h 04' 30"+  03:42:00 =20,174  km/h

86  Victor Lafosse  Touristes Routiers20h 04' 30"+  03:42:00 =20,174  km/h

87  Louis Beaulieu  Touristes Routiers20h 04' 30"+  03:42:00 =20,174  km/h

88  Giuseppe Cassini  Touristes Routiers20h 19' 40"+  03:57:10 =19,923  km/h

89  Joseph Berio  Touristes Routiers20h 19' 40"+  03:57:10 =19,923  km/h

90  Gaston Lemee  Touristes Routiers20h 20' 30"+  03:58:00 =19,910  km/h

91  Adrien Alpini  Touristes Routiers20h 27' 35"+  04:05:05 =19,795  km/h

92  Alexandre Bontoux  Touristes Routiers20h 50' 15"+  04:27:45 =19,436  km/h

93  Victor Guichon  Touristes Routiers21h 18' 04"+  04:55:34 =19,013  km/h

94  Auguste Pescher  Touristes Routiers21h 19' 20"+  04:56:50 =18,994  km/h

95  Eugene Chiaberge  Touristes Routiers21h 54' 00"+  05:31:30 =18,493  km/h

96  Victor Kirchen  Touristes Routiers21h 54' 00"+  05:31:30 =18,493  km/h


Withdrawls: 13
 RiderTeamReason
13   Camiel Van de Casteele J. B. Louvet-PouchoisDid not finish
102   Urbain Comitis Touristes RoutiersDid not finish
113   August Lesigne Touristes RoutiersDid not finish
115   Gaston Morlet Touristes RoutiersDid not finish
117   Rene Wendels Touristes RoutiersDid not finish
119   Pierre Argeles Touristes RoutiersDid not finish
121   Joseph Pe Touristes RoutiersDid not finish
122   Camille Botte Touristes RoutiersDid not finish
130   Maurice Protin Touristes RoutiersDid not finish
141   Julien Lamby Touristes RoutiersDid not finish
158   Julien Perdaens Touristes RoutiersDid not finish
175   Robert Asse Touristes RoutiersDid not finish
200   Jacques Coomans Touristes RoutiersDid not finish
Todays birthdays.

1858 • Aimé Monin
1894 • Camille Nicou
1902 • Louis Millo
1902 • Aleardo Simoni
1903 • Jean-Gabriel Zenon
1926 • Isidoor De Ryck
1931 • Miguel Pacheco
1946 • Stéphane Abrahamian
1956 • Siegfried Hekimi
1957 • Peter Winnen
1958 • Marcel Russenberger
1958 • Patrick Versluys
1981 • Daniel Moreno
1984 • Chris Anker Sørensen
1989 • Joey Rosskopf

 

Optimized for Chrome - Edge
and Opera browsers.